Weather History for Dallas Addison, TX

Change the Weather History Date:

Friday, May 17, 2013

  Actual Average Record
Temperature  
Mean Temperature 80 °F -  
Max Temperature 89 °F 81 °F 89 °F (2001)
Min Temperature 71 °F 64 °F 57 °F (2006)
Cooling Degree Days 15    
Growing Degree Days 30 (Base 50)    
Moisture  
Dew Point 71 °F    
Average Humidity 80    
Maximum Humidity 100    
Minimum Humidity 49    
Precipitation  
Precipitation 0.00 in - - ()
Sea Level Pressure  
Sea Level Pressure 29.82 in    
Wind  
Wind Speed 9 mph (SSE)    
Max Wind Speed 20 mph    
Max Gust Speed 28 mph    
Visibility 7 miles    
Events      
Averages and records for this station are not official NWS values.
T = Trace of Precipitation, MM = Missing Value Source: NWS Daily Summary

Daily Weather History Graph

Daily Weather History Graph

Search for Another Location

Airport:

Trip Planner

Search our weather history database for the weather conditions in past years. The results will help you decide how hot, cold, wet, or windy it might be!

Date:

Astronomy

May. 17, 2013 Rise Set
Actual Time 6:26 AM CDT 8:21 PM CDT
Civil Twilight 5:59 AM CDT 8:48 PM CDT
Nautical Twilight 5:26 AM CDT 9:22 PM CDT
Astronomical Twilight 4:50 AM CDT 9:57 PM CDT
Moon 12:51 PM CDT (5/17) 1:22 AM CDT (5/17)
Length of Visible Light 14h 49m
Length of Day
13h 54m
Waxing Crescent, 45% of the Moon is Illuminated
May 17
Waxing Crescent
May 17
First Quarter
May 24
Full
May 31
Last Quarter
Jun 8
New

Hourly Weather History & Observations

Time (CDT) Temp. Heat Index Dew Point Humidity Pressure Visibility Wind Dir Wind Speed Gust Speed Precip Events Conditions
12:15 AM 73.4 °F - 71.6 °F 94% 29.81 in 10.0 mi East 8.1 mph - N/A   Scattered Clouds
12:35 AM 73.4 °F - 71.6 °F 94% 29.81 in 10.0 mi East 6.9 mph - N/A   Scattered Clouds
12:55 AM 73.4 °F - 73.4 °F 100% 29.81 in 10.0 mi East 8.1 mph - N/A   Mostly Cloudy
1:15 AM 73.4 °F - 71.6 °F 94% 29.81 in 10.0 mi ESE 8.1 mph - N/A   Overcast
1:35 AM 73.4 °F - 73.4 °F 100% 29.81 in 10.0 mi ESE 5.8 mph - N/A   Overcast
1:55 AM 73.4 °F - 71.6 °F 94% 29.81 in 10.0 mi SE 5.8 mph - N/A   Overcast
2:15 AM 73.4 °F - 73.4 °F 100% 29.81 in 10.0 mi SSE 8.1 mph - N/A   Overcast
2:35 AM 73.4 °F - 73.4 °F 100% 29.81 in 10.0 mi SSE 8.1 mph - N/A   Overcast
2:55 AM 73.4 °F - 73.4 °F 100% 29.81 in 7.0 mi South 8.1 mph - N/A   Overcast
3:15 AM 73.4 °F - 73.4 °F 100% 29.81 in 7.0 mi South 8.1 mph - N/A   Overcast
3:35 AM 73.4 °F - 73.4 °F 100% 29.81 in 7.0 mi South 9.2 mph - N/A   Overcast
3:55 AM 73.4 °F - 73.4 °F 100% 29.81 in 7.0 mi South 8.1 mph - N/A   Overcast
4:15 AM 73.4 °F - 73.4 °F 100% 29.81 in 5.0 mi South 4.6 mph - N/A   Overcast
4:35 AM 71.6 °F - 71.6 °F 100% 29.82 in 5.0 mi South 6.9 mph - N/A   Overcast
4:55 AM 71.6 °F - 71.6 °F 100% 29.81 in 4.0 mi South 6.9 mph - N/A   Overcast
5:15 AM 71.6 °F - 71.6 °F 100% 29.82 in 3.0 mi South 6.9 mph - N/A   Overcast
5:35 AM 71.6 °F - 71.6 °F 100% 29.81 in 3.0 mi SSE 6.9 mph - N/A   Overcast
5:47 AM 73.4 °F - 69.8 °F 88% 29.81 in 1.5 mi SE 6.9 mph - N/A   Overcast
5:55 AM 71.6 °F - 71.6 °F 100% 29.82 in 2.5 mi SE 6.9 mph - N/A   Overcast
7:49 AM 73.4 °F - 69.8 °F 88% 29.86 in 1.5 mi ESE 8.1 mph - N/A   Overcast
8:55 AM 73.4 °F - 69.8 °F 88% 29.85 in 3.0 mi ESE 10.4 mph - N/A   Overcast
9:47 AM 77.0 °F - 71.6 °F 83% 29.85 in 4.0 mi SSE 11.5 mph - N/A   Overcast
10:47 AM 77.0 °F - 69.8 °F 78% 29.84 in 7.0 mi South 11.5 mph 18.4 mph N/A   Haze
11:25 AM 80.6 °F 83.9 °F 69.8 °F 70% 29.86 in 7.0 mi South 12.7 mph 19.6 mph N/A   Haze
11:47 AM 80.6 °F 83.9 °F 69.8 °F 70% 29.86 in 7.0 mi South 10.4 mph 17.3 mph N/A   Haze
12:50 PM 82.4 °F 86.3 °F 69.8 °F 66% 29.85 in 7.0 mi SSE 10.4 mph 18.4 mph N/A   Haze
1:47 PM 86.0 °F 90.4 °F 69.8 °F 58% 29.84 in 7.0 mi South 10.4 mph 19.6 mph N/A   Partly Cloudy
2:47 PM 87.8 °F 92.6 °F 69.8 °F 55% 29.82 in 10.0 mi SSE 11.5 mph 18.4 mph N/A   Haze
3:47 PM 89.6 °F 93.4 °F 68.0 °F 49% 29.81 in 10.0 mi South 13.8 mph 18.4 mph N/A   Clear
4:59 PM 89.6 °F 93.4 °F 68.0 °F 49% 29.80 in 10.0 mi SSE 12.7 mph 18.4 mph N/A   Partly Cloudy
5:47 PM 86.0 °F 90.4 °F 69.8 °F 58% 29.79 in 10.0 mi SSE 11.5 mph 18.4 mph N/A   Mostly Cloudy
6:47 PM 86.0 °F 89.4 °F 68.0 °F 55% 29.80 in 10.0 mi SSE 13.8 mph - N/A   Mostly Cloudy
7:47 PM 84.2 °F 88.4 °F 69.8 °F 62% 29.81 in 10.0 mi SSE 9.2 mph - N/A   Mostly Cloudy
8:47 PM 86.0 °F 89.4 °F 68.0 °F 55% 29.81 in 7.0 mi South 15.0 mph - N/A   Mostly Cloudy
9:47 PM 84.2 °F 88.4 °F 69.8 °F 62% 29.81 in 8.0 mi SSE 18.4 mph 26.5 mph N/A   Mostly Cloudy
10:15 PM 86.0 °F 89.4 °F 68.0 °F 55% 29.79 in 10.0 mi South 19.6 mph 26.5 mph N/A   Clear
10:35 PM 84.2 °F 87.3 °F 68.0 °F 58% 29.78 in 7.0 mi South 16.1 mph 27.6 mph N/A   Clear
10:55 PM 82.4 °F 85.4 °F 68.0 °F 62% 29.82 in 10.0 mi ESE 10.4 mph 21.9 mph N/A   Clear
11:35 PM 82.4 °F 86.3 °F 69.8 °F 66% 29.83 in 10.0 mi South 12.7 mph 17.3 mph N/A   Clear
11:55 PM 82.4 °F 86.3 °F 69.8 °F 66% 29.84 in 10.0 mi South 5.8 mph - N/A   Clear